When you browse on this site, cookies collect data to enhance your experience and personalize the content and advertising you see.
Visit our Privacy Policy to learn more. By continuing to use the site, you agree to this use of cookies and data.
  • In Hungary
  • List of Countries
  • For 7 days
  • Water Temperature
  • Satellite Maps
  • Weather Map
  • News
  • Weather Widgets
  • user-avatar
    Login

    Hourly Weather Sanasanne-Mango

    Today, 20 April, Saturday

    Time Temperature Precipitation Wind Pressure Humidity
    00:00 +37°C° 0 mm 2 mps 745 mmHg 37%
    01:00 +37°C° 0 mm 3 mps 744 mmHg 40%
    02:00 +36°C° 0 mm 3 mps 744 mmHg 43%
    03:00 +35°C° 0 mm 3 mps 744 mmHg 46%
    04:00 +35°C° 0 mm 3 mps 744 mmHg 49%
    05:00 +35°C° 0 mm 3 mps 744 mmHg 52%
    06:00 +35°C° 0 mm 3 mps 745 mmHg 52%
    07:00 +35°C° 0 mm 3 mps 745 mmHg 50%
    08:00 +36°C° 0 mm 3 mps 746 mmHg 48%
    09:00 +37°C° 0 mm 3 mps 746 mmHg 46%
    10:00 +39°C° 0 mm 3 mps 746 mmHg 40%
    11:00 +41°C° 0 mm 2 mps 745 mmHg 34%
    12:00 +42°C° 0 mm 2 mps 745 mmHg 33%
    13:00 +42°C° 0 mm 2 mps 745 mmHg 32%
    14:00 +42°C° 0 mm 1 mps 744 mmHg 30%
    15:00 +42°C° 0 mm 1 mps 744 mmHg 28%
    16:00 +42°C° 0 mm 1 mps 744 mmHg 30%
    17:00 +41°C° 0 mm 1 mps 744 mmHg 31%
    18:00 +40°C° 0 mm 2 mps 744 mmHg 32%
    19:00 +40°C° 0 mm 2 mps 744 mmHg 34%
    20:00 +39°C° 0 mm 2 mps 744 mmHg 36%
    21:00 +39°C° 0 mm 2 mps 744 mmHg 37%
    22:00 +38°C° 0.1 mm 2 mps 744 mmHg 39%
    23:00 +38°C° 0.1 mm 2 mps 744 mmHg 40%

    Tomorrow, 21 April, Sunday

    Time Temperature Precipitation Wind Pressure Humidity
    00:00 +37°C° 0.1 mm 2 mps 744 mmHg 41%
    01:00 +37°C° 0 mm 3 mps 744 mmHg 44%
    02:00 +36°C° 0 mm 3 mps 744 mmHg 46%
    03:00 +35°C° 0 mm 4 mps 744 mmHg 49%
    04:00 +34°C° 0 mm 4 mps 744 mmHg 52%
    05:00 +34°C° 0 mm 4 mps 745 mmHg 56%
    06:00 +33°C° 0 mm 4 mps 745 mmHg 59%
    07:00 +34°C° 0 mm 4 mps 745 mmHg 55%
    08:00 +35°C° 0 mm 4 mps 746 mmHg 51%
    09:00 +36°C° 0 mm 4 mps 746 mmHg 47%
    10:00 +38°C° 0 mm 4 mps 746 mmHg 43%
    11:00 +40°C° 0 mm 4 mps 745 mmHg 39%
    12:00 +42°C° 0 mm 3 mps 745 mmHg 34%
    13:00 +43°C° 0 mm 3 mps 744 mmHg 31%
    14:00 +43°C° 0 mm 2 mps 743 mmHg 27%
    15:00 +44°C° 0 mm 1 mps 742 mmHg 23%
    16:00 +43°C° 0 mm 2 mps 742 mmHg 24%
    17:00 +42°C° 0 mm 2 mps 742 mmHg 24%
    18:00 +42°C° 0 mm 2 mps 742 mmHg 25%
    19:00 +41°C° 0 mm 2 mps 743 mmHg 27%
    20:00 +40°C° 0 mm 3 mps 743 mmHg 30%
    21:00 +39°C° 0 mm 3 mps 744 mmHg 32%
    22:00 +38°C° 0 mm 3 mps 744 mmHg 35%
    23:00 +38°C° 0 mm 3 mps 744 mmHg 37%

    Day after tomorrow, 22 April, Monday

    Time Temperature Precipitation Wind Pressure Humidity
    00:00 +37°C° 0 mm 2 mps 743 mmHg 40%
    01:00 +37°C° 0 mm 3 mps 743 mmHg 41%
    02:00 +36°C° 0 mm 3 mps 743 mmHg 42%
    03:00 +36°C° 0 mm 3 mps 742 mmHg 43%
    04:00 +36°C° 0 mm 3 mps 743 mmHg 44%
    05:00 +35°C° 0 mm 3 mps 743 mmHg 45%
    06:00 +35°C° 0 mm 3 mps 743 mmHg 45%
    07:00 +36°C° 0 mm 3 mps 744 mmHg 43%
    08:00 +37°C° 0 mm 3 mps 744 mmHg 41%
    09:00 +40°C° 0 mm 4 mps 745 mmHg 38%
    10:00 +40°C° 0 mm 3 mps 744 mmHg 35%
    11:00 +43°C° 0 mm 3 mps 744 mmHg 31%
    12:00 +43°C° 0 mm 2 mps 743 mmHg 28%
    13:00 +43°C° 0 mm 2 mps 743 mmHg 26%
    14:00 +45°C° 0 mm 2 mps 742 mmHg 25%
    15:00 +44°C° 0 mm 1 mps 741 mmHg 24%
    16:00 +43°C° 0 mm 1 mps 741 mmHg 25%
    17:00 +43°C° 0 mm 1 mps 741 mmHg 25%
    18:00 +42°C° 0 mm 1 mps 741 mmHg 26%
    19:00 +42°C° 0.1 mm 1 mps 741 mmHg 27%
    20:00 +41°C° 0.1 mm 1 mps 742 mmHg 29%
    21:00 +40°C° 0.1 mm 1 mps 743 mmHg 30%
    22:00 +39°C° 0 mm 2 mps 743 mmHg 32%
    23:00 +39°C° 0 mm 2 mps 742 mmHg 34%

    23 April, Tuesday

    Time Temperature Precipitation Wind Pressure Humidity
    00:00 +38°C° 0 mm 2 mps 742 mmHg 36%
    01:00 +37°C° 0.4 mm 3 mps 742 mmHg 40%
    02:00 +37°C° 0.4 mm 3 mps 742 mmHg 44%
    03:00 +36°C° 0.4 mm 4 mps 742 mmHg 48%
    04:00 +35°C° 2.9 mm 3 mps 743 mmHg 53%
    05:00 +34°C° 2.9 mm 3 mps 743 mmHg 59%
    06:00 +33°C° 2.9 mm 3 mps 744 mmHg 64%
    07:00 +34°C° 0 mm 3 mps 745 mmHg 59%
    08:00 +35°C° 0 mm 4 mps 745 mmHg 54%
    09:00 +36°C° 0 mm 4 mps 746 mmHg 50%
    10:00 +38°C° 0 mm 4 mps 745 mmHg 45%
    11:00 +39°C° 0 mm 3 mps 745 mmHg 41%
    12:00 +40°C° 0 mm 3 mps 745 mmHg 36%
    13:00 +41°C° 0 mm 2 mps 744 mmHg 34%
    14:00 +41°C° 0 mm 1 mps 743 mmHg 32%
    15:00 +42°C° 0 mm 1 mps 742 mmHg 30%
    16:00 +38°C° 0 mm 0 mps 742 mmHg 31%
    17:00 +38°C° 0 mm 0 mps 742 mmHg 31%
    18:00 +37°C° 0 mm 0 mps 742 mmHg 32%
    19:00 +40°C° 0 mm 1 mps 742 mmHg 34%
    20:00 +39°C° 0 mm 1 mps 743 mmHg 37%
    21:00 +38°C° 0 mm 2 mps 743 mmHg 39%
    22:00 +38°C° 0 mm 2 mps 743 mmHg 42%
    23:00 +37°C° 0 mm 2 mps 743 mmHg 45%

    24 April, Wednesday

    Time Temperature Precipitation Wind Pressure Humidity
    00:00 +36°C° 0 mm 2 mps 743 mmHg 48%
    01:00 +36°C° 0.1 mm 3 mps 743 mmHg 52%
    02:00 +35°C° 0.1 mm 3 mps 743 mmHg 56%
    03:00 +34°C° 0.1 mm 4 mps 743 mmHg 60%
    04:00 +34°C° 0 mm 4 mps 744 mmHg 61%
    05:00 +33°C° 0 mm 3 mps 744 mmHg 63%
    06:00 +33°C° 0 mm 3 mps 744 mmHg 64%
    07:00 +34°C° 0 mm 3 mps 745 mmHg 61%
    08:00 +35°C° 0 mm 3 mps 745 mmHg 58%
    09:00 +36°C° 0 mm 3 mps 745 mmHg 56%
    10:00 +37°C° 0 mm 3 mps 745 mmHg 50%
    11:00 +39°C° 0 mm 2 mps 744 mmHg 44%
    12:00 +40°C° 0 mm 2 mps 744 mmHg 39%
    13:00 +42°C° 0 mm 2 mps 743 mmHg 35%
    14:00 +43°C° 0 mm 1 mps 743 mmHg 31%
    15:00 +44°C° 0 mm 1 mps 742 mmHg 27%
    16:00 +43°C° 0 mm 2 mps 742 mmHg 28%
    17:00 +42°C° 0 mm 2 mps 743 mmHg 29%
    18:00 +41°C° 0 mm 2 mps 743 mmHg 30%
    19:00 +40°C° 0.2 mm 2 mps 743 mmHg 34%
    20:00 +39°C° 0.2 mm 3 mps 744 mmHg 37%
    21:00 +38°C° 0.2 mm 3 mps 744 mmHg 41%
    22:00 +37°C° 1.3 mm 3 mps 744 mmHg 45%
    23:00 +36°C° 1.3 mm 2 mps 744 mmHg 49%

    25 April, Thursday

    Time Temperature Precipitation Wind Pressure Humidity
    00:00 +35°C° 1.3 mm 2 mps 744 mmHg 53%
    01:00 +35°C° 0 mm 2 mps 743 mmHg 52%
    02:00 +36°C° 0 mm 3 mps 743 mmHg 51%
    03:00 +36°C° 0 mm 3 mps 743 mmHg 50%
    04:00 +35°C° 0 mm 3 mps 743 mmHg 54%
    05:00 +34°C° 0 mm 3 mps 744 mmHg 57%
    06:00 +34°C° 0 mm 3 mps 744 mmHg 60%
    07:00 +35°C° 0 mm 3 mps 745 mmHg 58%
    08:00 +36°C° 0 mm 4 mps 745 mmHg 56%
    09:00 +37°C° 0 mm 4 mps 746 mmHg 53%
    10:00 +38°C° 0 mm 3 mps 745 mmHg 48%
    11:00 +39°C° 0 mm 3 mps 745 mmHg 43%
    12:00 +41°C° 0 mm 2 mps 745 mmHg 39%
    13:00 +42°C° 0 mm 1 mps 744 mmHg 34%
    14:00 +43°C° 0 mm 1 mps 743 mmHg 30%
    15:00 +42°C° 0 mm 0 mps 742 mmHg 26%
    16:00 +44°C° 0 mm 1 mps 742 mmHg 27%
    17:00 +43°C° 0 mm 1 mps 742 mmHg 28%
    18:00 +42°C° 0 mm 1 mps 742 mmHg 29%
    19:00 +41°C° 0 mm 2 mps 743 mmHg 34%
    20:00 +40°C° 0 mm 3 mps 743 mmHg 38%
    21:00 +40°C° 0 mm 4 mps 744 mmHg 43%
    22:00 +38°C° 0 mm 4 mps 744 mmHg 45%
    23:00 +37°C° 0 mm 4 mps 743 mmHg 47%
    Show more